White Plains, CT

6:28 AM EST on December 16, 2019 (GMT -0500)
Westchester County

Weather History for KHPN - August, 2019

Change the Weather History Date:

Friday, August 9, 2019

  Actual Average Record
Temperature  
Mean Temperature 74 °F -  
Max Temperature 82 °F 80 °F 100 °F (2001)
Min Temperature 64 °F 63 °F 52 °F (1989)
Cooling Degree Days 8    
Growing Degree Days 24 (Base 50)    
Moisture  
Dew Point 59 °F    
Average Humidity 63    
Maximum Humidity 87    
Minimum Humidity 40    
Precipitation  
Precipitation 0.00 in - - ()
Sea Level Pressure  
Sea Level Pressure 29.74 in    
Wind  
Wind Speed 7 mph (NW)    
Max Wind Speed 13 mph    
Max Gust Speed -    
Visibility 10 miles    
Events      
Averages and records for this station are not official NWS values.
T = Trace of Precipitation, MM = Missing Value Source: NWS Daily Summary

Daily Weather History Graph

Daily Weather History Graph

Search for Another Location

Airport or City:

Astronomy

Aug. 09, 2019 Rise Set
Actual Time 5:58 AM EDT 8:01 PM EDT
Civil Twilight 5:28 AM EDT 8:31 PM EDT
Nautical Twilight 4:51 AM EDT 9:08 PM EDT
Astronomical Twilight 4:10 AM EDT 9:48 PM EDT
Moon 3:40 PM EDT (8/9) 12:53 AM EDT (8/9)
Length of Visible Light 15h 03m
Length of Day
14h 03m
Waxing Gibbous, 70% of the Moon is Illuminated
Aug 9
Waxing Gibbous
Aug 15
Full
Aug 23
Last Quarter
Aug 30
New
Sep 5
First Quarter

Hourly Weather History & Observations

Time (EDT) Temp. Heat Index Dew Point Humidity Pressure Visibility Wind Dir Wind Speed Gust Speed Precip Events Conditions
12:56 AM 68.0 °F - 63.0 °F 84% 29.70 in 10.0 mi West 3.5 mph - N/A   Partly Cloudy
1:56 AM 66.9 °F - 63.0 °F 87% 29.71 in 10.0 mi WNW 3.5 mph - N/A   Clear
2:56 AM 68.0 °F - 64.0 °F 87% 29.70 in 10.0 mi NW 4.6 mph - N/A   Clear
3:56 AM 68.0 °F - 64.0 °F 87% 29.70 in 10.0 mi NW 9.2 mph - N/A   Partly Cloudy
4:56 AM 69.1 °F - 64.0 °F 84% 29.71 in 10.0 mi NW 12.7 mph - N/A   Clear
5:56 AM 68.0 °F - 62.1 °F 81% 29.72 in 10.0 mi NW 9.2 mph - N/A   Partly Cloudy
6:56 AM 69.1 °F - 63.0 °F 81% 29.75 in 10.0 mi NW 9.2 mph - N/A   Partly Cloudy
7:56 AM 70.0 °F - 63.0 °F 78% 29.75 in 10.0 mi NW 8.1 mph - N/A   Clear
8:56 AM 73.0 °F - 61.0 °F 66% 29.76 in 10.0 mi NW 11.5 mph - N/A   Clear
9:56 AM 75.9 °F - 59.0 °F 56% 29.76 in 10.0 mi NW 11.5 mph - N/A   Clear
10:56 AM 78.1 °F - 55.9 °F 46% 29.76 in 10.0 mi NW 11.5 mph - N/A   Partly Cloudy
11:56 AM 80.1 °F 80.6 °F 57.9 °F 47% 29.75 in 10.0 mi WNW 8.1 mph - N/A   Partly Cloudy
12:56 PM 78.1 °F - 55.0 °F 45% 29.75 in 10.0 mi WNW 10.4 mph - N/A   Scattered Clouds
1:56 PM 78.1 °F - 55.9 °F 46% 29.74 in 10.0 mi WNW 6.9 mph - N/A   Mostly Cloudy
2:56 PM 81.0 °F 80.8 °F 55.9 °F 42% 29.73 in 10.0 mi WNW 5.8 mph - N/A   Scattered Clouds
3:56 PM 80.1 °F 80.4 °F 57.0 °F 45% 29.72 in 10.0 mi WNW 6.9 mph - N/A   Scattered Clouds
4:56 PM 81.0 °F 81.0 °F 57.0 °F 44% 29.71 in 10.0 mi WNW 9.2 mph - N/A   Partly Cloudy
5:56 PM 80.1 °F 80.0 °F 54.0 °F 40% 29.72 in 10.0 mi WNW 11.5 mph - N/A   Scattered Clouds
6:56 PM 77.0 °F - 57.0 °F 50% 29.73 in 10.0 mi NW 5.8 mph - N/A   Scattered Clouds
7:56 PM 75.9 °F - 53.1 °F 45% 29.75 in 10.0 mi NW 6.9 mph - N/A   Mostly Cloudy
8:56 PM 72.0 °F - 55.0 °F 55% 29.77 in 10.0 mi WNW 4.6 mph - N/A   Scattered Clouds
9:56 PM 66.0 °F - 55.9 °F 70% 29.79 in 10.0 mi Calm Calm - N/A   Clear
10:56 PM 66.0 °F - 57.9 °F 75% 29.78 in 10.0 mi NW 3.5 mph - N/A   Clear
11:56 PM 64.0 °F - 57.0 °F 78% 29.78 in 10.0 mi WNW 3.5 mph - N/A   Clear